Location: *
(44.3683°N, 6.6958°E)
Time: 19:51:37
(UTC+00:00)

ATLAS 5 CENTAUR R/B - Pass Details

Date: 14 October 2019
Orbit: 563 x 1096 km, 63.3° (Epoch: 19 November)

Event Time Altitude Azimuth Distance (km) Brightness Sun altitude
Rises 17:11:45 0° 205° (SSW) 2,755 5.4 -4.4°
Reaches altitude 10° 17:13:54 10° 201° (SSW) 1,887 4.5 -4.8°
Maximum altitude 17:18:02 58° 122° (ESE) 715 1.7 -5.5°
Drops below altitude 10° 17:22:38 10° 44° (NE) 2,096 3.8 -6.3°
Sets 17:25:08 0° 40° (NE) 3,095 4.7 -6.8°
